TimeCDT,TemperatureF,Dew PointF,Humidity,Sea Level PressureIn,VisibilityMPH,Wind Direction,Wind SpeedMPH,Gust SpeedMPH,PrecipitationIn,Events,Conditions,WindDirDegrees,DateUTC
12:15 AM,62.6,62.6,100,29.80,10.0,Calm,Calm,-,N/A,,Clear,0,2012-10-02 05:15:00
12:35 AM,62.8,62.8,100,29.80,10.0,Calm,Calm,-,N/A,,Clear,0,2012-10-02 05:35:00
12:55 AM,62.4,62.4,100,29.81,7.0,Calm,Calm,-,N/A,,Clear,0,2012-10-02 05:55:00
1:35 AM,62.1,62.1,100,29.81,0.8,Calm,Calm,-,N/A,,Mist,0,2012-10-02 06:35:00
2:35 AM,61.9,61.9,100,29.82,10.0,Calm,Calm,-,N/A,,Clear,0,2012-10-02 07:35:00
2:55 AM,61.0,61.0,100,29.82,10.0,Calm,Calm,-,N/A,,Clear,0,2012-10-02 07:55:00
3:15 AM,61.7,61.7,100,29.82,10.0,Calm,Calm,-,N/A,,Clear,0,2012-10-02 08:15:00
3:35 AM,61.2,61.2,100,29.82,10.0,Calm,Calm,-,N/A,,Clear,0,2012-10-02 08:35:00
3:55 AM,59.9,59.9,100,29.82,5.0,Calm,Calm,-,N/A,,Clear,0,2012-10-02 08:55:00
4:15 AM,59.7,59.7,100,29.82,0.5,Calm,Calm,-,N/A,Fog,Fog,0,2012-10-02 09:15:00
4:35 AM,60.1,60.1,100,29.82,0.8,Calm,Calm,-,N/A,,Mist,0,2012-10-02 09:35:00
4:55 AM,60.1,60.1,100,29.82,10.0,Calm,Calm,-,N/A,,Clear,0,2012-10-02 09:55:00
5:35 AM,59.2,59.2,100,29.83,2.5,Calm,Calm,-,N/A,,Clear,0,2012-10-02 10:35:00
5:55 AM,59.0,59.0,100,29.83,7.0,Calm,Calm,-,N/A,,Clear,0,2012-10-02 10:55:00
6:15 AM,58.5,58.5,100,29.84,5.0,Calm,Calm,-,N/A,,Clear,0,2012-10-02 11:15:00
6:35 AM,58.3,58.3,100,29.85,5.0,Calm,Calm,-,N/A,,Clear,0,2012-10-02 11:35:00
6:55 AM,58.1,58.1,100,29.85,4.0,Calm,Calm,-,N/A,,Clear,0,2012-10-02 11:55:00
7:15 AM,58.1,58.1,100,29.86,4.0,Calm,Calm,-,N/A,,Clear,0,2012-10-02 12:15:00
7:35 AM,58.6,58.6,100,29.87,7.0,Calm,Calm,-,N/A,,Clear,0,2012-10-02 12:35:00
7:55 AM,61.2,61.2,100,29.87,10.0,Calm,Calm,-,N/A,,Clear,0,2012-10-02 12:55:00
8:15 AM,63.3,63.3,100,29.88,10.0,Calm,Calm,-,N/A,,Clear,0,2012-10-02 13:15:00
8:35 AM,67.3,66.0,96,29.88,10.0,Calm,Calm,-,N/A,,Clear,0,2012-10-02 13:35:00
8:55 AM,68.9,66.9,93,29.89,10.0,Calm,Calm,-,N/A,,Clear,0,2012-10-02 13:55:00
9:15 AM,71.1,65.7,83,29.89,10.0,Calm,Calm,-,N/A,,Clear,0,2012-10-02 14:15:00
9:35 AM,73.4,64.2,73,29.90,10.0,Calm,Calm,-,N/A,,Clear,0,2012-10-02 14:35:00
9:55 AM,75.2,60.1,59,29.91,10.0,Calm,Calm,-,N/A,,Clear,0,2012-10-02 14:55:00
10:15 AM,76.5,57.6,52,29.90,10.0,Calm,Calm,-,N/A,,Clear,0,2012-10-02 15:15:00
10:35 AM,76.6,58.8,54,29.91,10.0,Calm,Calm,-,N/A,,Clear,0,2012-10-02 15:35:00
10:55 AM,77.0,58.8,53,29.91,10.0,Calm,Calm,-,N/A,,Clear,0,2012-10-02 15:55:00
11:15 AM,78.4,58.3,50,29.91,10.0,Calm,Calm,-,N/A,,Clear,0,2012-10-02 16:15:00
11:35 AM,79.0,57.7,48,29.91,10.0,Calm,Calm,-,0.01,,Clear,0,2012-10-02 16:35:00
11:55 AM,80.2,56.7,44,29.90,10.0,Calm,Calm,-,0.01,,Clear,0,2012-10-02 16:55:00
12:15 PM,80.6,56.1,43,29.90,10.0,Calm,Calm,-,N/A,,Clear,0,2012-10-02 17:15:00
12:35 PM,80.6,55.8,42,29.91,10.0,NNW,4.6,-,N/A,,Clear,330,2012-10-02 17:35:00
12:55 PM,80.8,56.1,43,29.90,10.0,NNW,3.5,-,N/A,,Clear,330,2012-10-02 17:55:00
1:15 PM,81.7,56.8,43,29.89,10.0,WNW,4.6,-,N/A,,Clear,290,2012-10-02 18:15:00
1:35 PM,81.1,54.5,40,29.89,10.0,North,4.6,-,N/A,,Clear,360,2012-10-02 18:35:00
1:55 PM,81.9,55.0,40,29.88,10.0,Calm,Calm,-,N/A,,Clear,0,2012-10-02 18:55:00
2:15 PM,82.4,55.2,39,29.88,10.0,NNW,3.5,-,N/A,,Scattered Clouds,330,2012-10-02 19:15:00
2:35 PM,82.6,54.1,37,29.87,10.0,Calm,Calm,-,N/A,,Clear,0,2012-10-02 19:35:00
2:55 PM,82.4,55.9,40,29.87,10.0,NW,4.6,-,N/A,,Clear,310,2012-10-02 19:55:00
3:15 PM,81.9,55.2,40,29.87,10.0,North,3.5,-,N/A,,Clear,350,2012-10-02 20:15:00
3:35 PM,83.3,54.3,37,29.87,10.0,WSW,4.6,-,N/A,,Mostly Cloudy,240,2012-10-02 20:35:00
3:55 PM,83.3,55.0,38,29.87,10.0,Calm,Calm,-,N/A,,Scattered Clouds,0,2012-10-02 20:55:00
4:15 PM,82.9,54.0,37,29.87,10.0,Calm,Calm,-,N/A,,Scattered Clouds,0,2012-10-02 21:15:00
4:35 PM,82.8,55.2,39,29.87,10.0,Calm,Calm,-,N/A,,Scattered Clouds,0,2012-10-02 21:35:00
4:55 PM,82.6,55.6,39,29.87,10.0,Calm,Calm,-,N/A,,Scattered Clouds,0,2012-10-02 21:55:00
5:15 PM,81.7,57.4,43,29.87,10.0,South,4.6,-,N/A,,Mostly Cloudy,190,2012-10-02 22:15:00
5:35 PM,79.9,61.9,54,29.88,10.0,South,5.8,-,N/A,,Mostly Cloudy,180,2012-10-02 22:35:00
5:55 PM,77.0,62.8,61,29.88,10.0,South,5.8,-,N/A,,Scattered Clouds,170,2012-10-02 22:55:00
6:15 PM,75.9,64.4,67,29.88,10.0,South,5.8,-,N/A,,Scattered Clouds,170,2012-10-02 23:15:00
6:35 PM,74.5,65.3,73,29.89,10.0,South,4.6,-,N/A,,Clear,170,2012-10-02 23:35:00
6:55 PM,73.0,65.5,77,29.89,10.0,South,3.5,-,N/A,,Clear,170,2012-10-02 23:55:00
7:15 PM,71.6,65.7,81,29.90,10.0,South,3.5,-,N/A,,Clear,180,2012-10-03 00:15:00
7:35 PM,72.9,65.3,77,29.91,10.0,SSW,3.5,-,N/A,,Clear,200,2012-10-03 00:35:00
7:55 PM,70.9,65.7,83,29.91,10.0,Calm,Calm,-,N/A,,Clear,0,2012-10-03 00:55:00
8:15 PM,70.7,66.2,86,29.92,10.0,Calm,Calm,-,N/A,,Clear,0,2012-10-03 01:15:00
8:35 PM,69.8,66.2,88,29.93,10.0,Calm,Calm,-,N/A,,Clear,0,2012-10-03 01:35:00
8:55 PM,68.5,66.9,95,29.94,10.0,Calm,Calm,-,N/A,,Clear,0,2012-10-03 01:55:00
9:15 PM,69.1,67.1,93,29.94,10.0,SE,3.5,-,N/A,,Clear,140,2012-10-03 02:15:00
9:35 PM,68.0,66.6,95,29.95,10.0,Calm,Calm,-,N/A,,Clear,0,2012-10-03 02:35:00
9:55 PM,67.6,66.2,95,29.95,10.0,Calm,Calm,-,N/A,,Clear,0,2012-10-03 02:55:00
10:15 PM,67.1,66.4,98,29.95,10.0,ESE,3.5,-,N/A,,Clear,120,2012-10-03 03:15:00
10:35 PM,66.9,66.6,99,29.96,10.0,Calm,Calm,-,N/A,,Clear,0,2012-10-03 03:35:00
10:55 PM,66.4,66.2,99,29.97,10.0,Calm,Calm,-,N/A,,Clear,0,2012-10-03 03:55:00
11:15 PM,68.0,66.0,93,29.97,10.0,SSE,3.5,-,N/A,,Clear,160,2012-10-03 04:15:00
11:35 PM,68.0,65.3,91,29.97,10.0,SSE,3.5,-,N/A,,Clear,150,2012-10-03 04:35:00
11:55 PM,68.0,64.9,90,29.97,10.0,Calm,Calm,-,N/A,,Clear,0,2012-10-03 04:55:00